NOVASAR 1 (43619 NORAD) Tracking and Keplerian Element Data

This shows tracking and keplerian element data for the satellite.

Feedback or suggestion? Click here.




ElementValue
Catalog43619
NameNOVASAR 1
Epoch Orbit34846
Epoch Day35.14438319
Epoch Year2025
RAAN280.6856
Inclination97.5778
Eccentricity0.000252
Argument of Perigee49.6957
Mean Anonmoly310.4484
Mean Motion14.96178719
Decay Rate1.329E-05
L11 43619U 18071B 25035.14438319 .00001329 00000+0 12292-3 0 9991
L22 43619 97.5778 280.6856 0002520 49.6957 310.4484 14.96178719348464



Live tracking and technical data element details for NOVASAR 1 (NORAD 43619). NOVASAR 1 can be tracked NOW for your location showing map with azimuth and elevation plus other details from your city location.







IsCatalogInMostPopularTable: catalog: 43619, numindb: 367
Update: records affected: 1



GetName: 43619 NOVASAR 1

Hit Count: updated at: Thu, 15 May 2025 10:51:33 GMT